| time (UTC) | temp C | wind direction | speed KPH | gust KPH | rain 1hr cm | rain 24hr cm | rain mn cm | humidity % | barometer mb |
| 20260510032020 | 11 | 59 | 0.0 | 0.0 | 0.00 | 1.27 | 1.27 | 99 | 1009.8 |
| 20260510031516 | 11 | 60 | 0.0 | 0.0 | 0.00 | 1.27 | 1.27 | 99 | 1009.8 |
| 20260510031012 | 11 | 60 | 0.0 | 0.0 | 0.00 | 1.27 | 1.27 | 99 | 1009.6 |
| 20260510030508 | 11 | 59 | 0.0 | 0.0 | 0.00 | 1.27 | 1.27 | 99 | 1009.7 |
| 20260510030005 | 11 | 59 | 0.0 | 0.0 | 0.00 | 1.27 | 1.27 | 99 | 1009.9 |
| 20260510025502 | 11 | 60 | 1.6 | 1.6 | 0.00 | 1.27 | 1.27 | 99 | 1009.9 |
| 20260510024959 | 11 | 59 | 1.6 | 1.6 | 0.00 | 1.27 | 1.27 | 99 | 1010.1 |
| 20260510024450 | 11 | 60 | 1.6 | 1.6 | 0.00 | 1.27 | 1.27 | 99 | 1010.0 |
| 20260510023946 | 11 | 71 | 1.6 | 3.2 | 0.00 | 1.27 | 1.27 | 99 | 1010.1 |
| 20260510023443 | 11 | 57 | 1.6 | 1.6 | 0.18 | 1.27 | 1.27 | 99 | 1010.0 |
| 20260510022940 | 11 | 67 | 1.6 | 1.6 | 0.48 | 1.27 | 1.27 | 99 | 1010.1 |
| 20260510022438 | 11 | 85 | 3.2 | 3.2 | 0.79 | 1.24 | 1.24 | 99 | 1010.3 |
| 20260510021938 | 11 | 46 | 0.0 | 0.0 | 0.89 | 1.19 | 1.19 | 99 | 1011.0 |
| 20260510021436 | 11 | 48 | 0.0 | 0.0 | 0.71 | 1.12 | 1.12 | 99 | 1011.1 |
| 20260510020932 | 11 | 51 | 1.6 | 1.6 | 0.79 | 1.07 | 1.07 | 99 | 1010.9 |
| 20260510020427 | 11 | 43 | 0.0 | 0.0 | 1.07 | 1.02 | 1.02 | 99 | 1010.8 |
| 20260510015923 | 11 | 11 | 1.6 | 1.6 | 1.02 | 0.94 | 0.94 | 99 | 1011.0 |
| 20260510015419 | 11 | 23 | 0.0 | 0.0 | 0.61 | 0.84 | 0.84 | 99 | 1010.7 |
| 20260510014914 | 11 | 20 | 0.0 | 0.0 | 0.61 | 0.76 | 0.76 | 99 | 1010.5 |
| 20260510014412 | 11 | 0 | 1.6 | 1.6 | 1.68 | 0.74 | 0.74 | 98 | 1010.2 |
| 20260510013909 | 12 | 13 | 3.2 | 3.2 | 1.98 | 0.69 | 0.69 | 97 | 1010.2 |
| 20260510013403 | 12 | 33 | 3.2 | 4.8 | 1.68 | 0.53 | 0.53 | 94 | 1010.2 |
| 20260510012859 | 13 | 197 | 3.2 | 3.2 | 0.61 | 0.36 | 0.36 | 89 | 1010.5 |
| 20260510012354 | 15 | 301 | 6.4 | 8.0 | 0.00 | 0.25 | 0.25 | 81 | 1010.0 |
| 20260510011849 | 16 | 339 | 6.4 | 8.0 | 0.00 | 0.25 | 0.25 | 73 | 1009.1 |
| 20260510011344 | 17 | 42 | 0.0 | 0.0 | 0.00 | 0.25 | 0.25 | 68 | 1008.1 |
| 20260510010840 | 16 | 51 | 0.0 | 0.0 | 0.00 | 0.25 | 0.25 | 68 | 1007.8 |
| 20260510010338 | 16 | 47 | 0.0 | 0.0 | 0.00 | 0.25 | 0.25 | 67 | 1007.8 |
| 20260510005834 | 17 | 62 | 1.6 | 1.6 | 0.00 | 0.25 | 0.25 | 67 | 1007.8 |
| 20260510005331 | 17 | 63 | 1.6 | 1.6 | 0.00 | 0.25 | 0.25 | 67 | 1007.8 |
| 20260510004829 | 17 | 50 | 0.0 | 0.0 | 0.00 | 0.25 | 0.25 | 67 | 1007.8 |
| 20260510004326 | 17 | 63 | 1.6 | 1.6 | 0.00 | 0.25 | 0.25 | 66 | 1007.6 |
| 20260510003823 | 17 | 65 | 1.6 | 1.6 | 0.00 | 0.25 | 0.25 | 66 | 1007.6 |
| 20260510003321 | 17 | 59 | 0.0 | 0.0 | 0.00 | 0.25 | 0.25 | 65 | 1007.6 |
| 20260510002819 | 17 | 70 | 1.6 | 1.6 | 0.00 | 0.25 | 0.25 | 66 | 1007.6 |
| 20260510002317 | 17 | 52 | 0.0 | 0.0 | 0.00 | 0.25 | 0.25 | 65 | 1007.3 |
| 20260510001813 | 17 | 71 | 3.2 | 3.2 | 0.00 | 0.25 | 0.25 | 65 | 1007.3 |
| 20260510001311 | 17 | 36 | 0.0 | 1.6 | 0.00 | 0.25 | 0.25 | 65 | 1007.4 |
| 20260510000806 | 17 | 212 | 4.8 | 4.8 | 0.00 | 0.25 | 0.25 | 64 | 1007.7 |
| 20260510000305 | 17 | 69 | 3.2 | 4.8 | 0.00 | 0.25 | 0.25 | 65 | 1007.4 |
| 20260509235802 | 17 | 89 | 3.2 | 3.2 | 0.00 | 0.25 | 0.25 | 63 | 1007.2 |
| 20260509235258 | 17 | 131 | 4.8 | 4.8 | 0.00 | 0.25 | 0.25 | 64 | 1007.0 |
| 20260509234754 | 18 | 78 | 4.8 | 4.8 | 0.00 | 0.25 | 0.25 | 63 | 1007.0 |
| 20260509234251 | 18 | 83 | 3.2 | 3.2 | 0.00 | 0.25 | 0.25 | 62 | 1007.2 |
| 20260509233749 | 18 | 58 | 1.6 | 1.6 | 0.00 | 0.25 | 0.25 | 62 | 1007.2 |
| 20260509233246 | 18 | 17 | 1.6 | 3.2 | 0.00 | 0.25 | 0.25 | 62 | 1006.9 |
| 20260509232742 | 18 | 75 | 4.8 | 4.8 | 0.00 | 0.25 | 0.25 | 61 | 1006.9 |
| 20260509232240 | 18 | 10 | 3.2 | 3.2 | 0.00 | 0.25 | 0.25 | 62 | 1006.9 |
| 20260509231736 | 18 | 203 | 1.6 | 3.2 | 0.00 | 0.25 | 0.25 | 62 | 1006.9 |
| 20260509231233 | 18 | 56 | 1.6 | 3.2 | 0.00 | 0.25 | 0.25 | 61 | 1006.9 |
| 20260509230730 | 18 | 54 | 1.6 | 1.6 | 0.00 | 0.25 | 0.25 | 62 | 1006.9 |
| 20260509230227 | 19 | 345 | 1.6 | 1.6 | 0.00 | 0.25 | 0.25 | 61 | 1007.0 |
| 20260509225722 | 19 | 58 | 4.8 | 4.8 | 0.00 | 0.25 | 0.25 | 61 | 1007.0 |
| 20260509225218 | 19 | 235 | 3.2 | 3.2 | 0.00 | 0.25 | 0.25 | 61 | 1006.9 |
| 20260509224714 | 19 | 104 | 4.8 | 4.8 | 0.00 | 0.25 | 0.25 | 61 | 1007.0 |
| 20260509224211 | 19 | 43 | 1.6 | 1.6 | 0.00 | 0.25 | 0.25 | 61 | 1006.9 |
| 20260509223708 | 19 | 2 | 1.6 | 3.2 | 0.00 | 0.25 | 0.25 | 62 | 1006.6 |
| 20260509223205 | 19 | 39 | 1.6 | 1.6 | 0.00 | 0.25 | 0.25 | 62 | 1006.9 |
| 20260509222702 | 19 | 133 | 3.2 | 4.8 | 0.00 | 0.25 | 0.25 | 60 | 1006.6 |
| 20260509222158 | 19 | 129 | 4.8 | 4.8 | 0.00 | 0.25 | 0.25 | 60 | 1006.8 |
| 20260509221654 | 19 | 54 | 0.0 | 1.6 | 0.00 | 0.25 | 0.25 | 61 | 1006.7 |
| 20260509221149 | 19 | 146 | 4.8 | 8.0 | 0.00 | 0.25 | 0.25 | 61 | 1006.9 |
| 20260509220646 | 19 | 40 | 1.6 | 3.2 | 0.00 | 0.25 | 0.25 | 61 | 1006.8 |
| 20260509220142 | 19 | 314 | 6.4 | 8.0 | 0.00 | 0.25 | 0.25 | 61 | 1006.8 |
| 20260509215638 | 19 | 3 | 4.8 | 4.8 | 0.00 | 0.25 | 0.25 | 60 | 1006.6 |
| 20260509215135 | 18 | 92 | 4.8 | 4.8 | 0.00 | 0.25 | 0.25 | 62 | 1006.9 |
| 20260509214632 | 19 | 129 | 6.4 | 9.7 | 0.00 | 0.25 | 0.25 | 63 | 1007.0 |
| 20260509214129 | 19 | 226 | 1.6 | 4.8 | 0.00 | 0.25 | 0.25 | 62 | 1007.0 |
| 20260509213626 | 19 | 145 | 4.8 | 4.8 | 0.00 | 0.25 | 0.25 | 61 | 1006.8 |
| 20260509213121 | 19 | 336 | 4.8 | 4.8 | 0.00 | 0.25 | 0.25 | 63 | 1007.0 |
| 20260509212620 | 18 | 296 | 3.2 | 4.8 | 0.00 | 0.25 | 0.25 | 63 | 1007.3 |
| 20260509212116 | 18 | 347 | 4.8 | 4.8 | 0.00 | 0.25 | 0.25 | 62 | 1007.0 |
| 20260509211612 | 18 | 172 | 3.2 | 4.8 | 0.00 | 0.25 | 0.25 | 63 | 1007.2 |
| 20260509211109 | 18 | 51 | 3.2 | 3.2 | 0.00 | 0.25 | 0.25 | 63 | 1007.2 |
| 20260509210605 | 18 | 299 | 4.8 | 4.8 | 0.00 | 0.25 | 0.25 | 61 | 1007.2 |
| 20260509205556 | 18 | 340 | 3.2 | 3.2 | 0.00 | 0.25 | 0.25 | 65 | 1007.2 |
| 20260509205051 | 18 | 300 | 6.4 | 8.0 | 0.00 | 0.25 | 0.25 | 65 | 1007.2 |
| 20260509204548 | 17 | 345 | 4.8 | 9.7 | 0.00 | 0.25 | 0.25 | 66 | 1007.6 |
| 20260509204045 | 17 | 289 | 6.4 | 9.7 | 0.00 | 0.25 | 0.25 | 67 | 1007.8 |
| 20260509203540 | 17 | 133 | 4.8 | 4.8 | 0.00 | 0.25 | 0.25 | 69 | 1007.7 |
| 20260509203039 | 17 | 235 | 4.8 | 4.8 | 0.00 | 0.25 | 0.25 | 68 | 1007.8 |
| 20260509202533 | 17 | 57 | 3.2 | 3.2 | 0.00 | 0.25 | 0.25 | 67 | 1007.8 |
| 20260509202029 | 18 | 155 | 4.8 | 4.8 | 0.00 | 0.25 | 0.25 | 65 | 1007.4 |
| 20260509201524 | 18 | 185 | 3.2 | 3.2 | 0.00 | 0.25 | 0.25 | 65 | 1007.7 |
| 20260509201021 | 18 | 63 | 3.2 | 3.2 | 0.00 | 0.25 | 0.25 | 66 | 1007.9 |
| 20260509200516 | 17 | 114 | 4.8 | 8.0 | 0.00 | 0.25 | 0.25 | 67 | 1007.9 |
| 20260509200012 | 18 | 197 | 4.8 | 4.8 | 0.00 | 0.25 | 0.25 | 68 | 1007.9 |
| 20260509195508 | 17 | 318 | 3.2 | 4.8 | 0.00 | 0.25 | 0.25 | 68 | 1008.2 |
| 20260509195002 | 18 | 208 | 6.4 | 8.0 | 0.00 | 0.25 | 0.25 | 68 | 1008.4 |
| 20260509194457 | 17 | 149 | 4.8 | 4.8 | 0.00 | 0.25 | 0.25 | 73 | 1008.2 |
| 20260509193954 | 17 | 238 | 3.2 | 4.8 | 0.00 | 0.25 | 0.25 | 73 | 1008.5 |
| 20260509193449 | 17 | 333 | 3.2 | 4.8 | 0.00 | 0.25 | 0.25 | 73 | 1008.3 |
| 20260509192945 | 17 | 167 | 1.6 | 3.2 | 0.00 | 0.25 | 0.25 | 72 | 1008.1 |
| 20260509192442 | 16 | 135 | 4.8 | 9.7 | 0.00 | 0.25 | 0.25 | 75 | 1008.2 |
| 20260509191937 | 16 | 328 | 1.6 | 3.2 | 0.00 | 0.25 | 0.25 | 75 | 1008.3 |
| 20260509191432 | 16 | 334 | 1.6 | 3.2 | 0.00 | 0.25 | 0.25 | 72 | 1008.5 |
| 20260509190929 | 16 | 285 | 4.8 | 4.8 | 0.00 | 0.25 | 0.25 | 72 | 1008.7 |
| 20260509190426 | 17 | 354 | 1.6 | 1.6 | 0.00 | 0.25 | 0.25 | 74 | 1008.5 |
| 20260509185924 | 16 | 77 | 3.2 | 3.2 | 0.00 | 0.25 | 0.25 | 74 | 1008.5 |
| 20260509185421 | 17 | 29 | 1.6 | 1.6 | 0.00 | 0.25 | 0.25 | 75 | 1008.6 |
| 20260509184917 | 16 | 38 | 1.6 | 3.2 | 0.00 | 0.25 | 0.25 | 77 | 1008.6 |
| 20260509184415 | 16 | 57 | 1.6 | 1.6 | 0.00 | 0.25 | 0.25 | 77 | 1008.4 |
| 20260509183911 | 16 | 320 | 3.2 | 3.2 | 0.00 | 0.25 | 0.25 | 77 | 1008.6 |
| 20260509183406 | 16 | 43 | 1.6 | 1.6 | 0.00 | 0.25 | 0.25 | 75 | 1008.8 |
| 20260509182902 | 16 | 254 | 3.2 | 3.2 | 0.00 | 0.25 | 0.25 | 76 | 1008.9 |
| 20260509182359 | 16 | 123 | 3.2 | 3.2 | 0.00 | 0.25 | 0.25 | 77 | 1008.9 |
| 20260509181857 | 16 | 255 | 3.2 | 4.8 | 0.00 | 0.25 | 0.25 | 76 | 1009.0 |
| 20260509181354 | 16 | 299 | 8.0 | 9.7 | 0.00 | 0.25 | 0.25 | 78 | 1008.8 |
| 20260509180851 | 16 | 25 | 3.2 | 4.8 | 0.00 | 0.25 | 0.25 | 77 | 1008.8 |
| 20260509180346 | 16 | 336 | 6.4 | 8.0 | 0.00 | 0.25 | 0.25 | 79 | 1008.9 |
| 20260509175844 | 15 | 66 | 1.6 | 3.2 | 0.00 | 0.25 | 0.25 | 80 | 1008.9 |
| 20260509175340 | 15 | 44 | 1.6 | 3.2 | 0.00 | 0.25 | 0.25 | 81 | 1008.8 |
| 20260509174836 | 15 | 15 | 1.6 | 3.2 | 0.00 | 0.25 | 0.25 | 81 | 1008.8 |
| 20260509174332 | 15 | 49 | 1.6 | 1.6 | 0.00 | 0.25 | 0.25 | 82 | 1008.9 |
| 20260509173828 | 14 | 103 | 3.2 | 3.2 | 0.00 | 0.25 | 0.25 | 85 | 1008.7 |
| 20260509173323 | 14 | 107 | 1.6 | 3.2 | 0.00 | 0.25 | 0.25 | 86 | 1009.1 |
| 20260509172820 | 14 | 82 | 1.6 | 3.2 | 0.00 | 0.25 | 0.25 | 87 | 1009.0 |
| 20260509172317 | 13 | 119 | 3.2 | 3.2 | 0.00 | 0.25 | 0.25 | 88 | 1008.9 |
| 20260509171813 | 13 | 8 | 1.6 | 1.6 | 0.00 | 0.25 | 0.25 | 89 | 1008.9 |
| 20260509171308 | 14 | 8 | 1.6 | 1.6 | 0.00 | 0.25 | 0.25 | 88 | 1009.1 |
| 20260509170805 | 13 | 42 | 0.0 | 0.0 | 0.00 | 0.25 | 0.25 | 88 | 1009.0 |
| 20260509170301 | 13 | 8 | 3.2 | 3.2 | 0.00 | 0.25 | 0.25 | 89 | 1008.7 |
| 20260509165800 | 13 | 40 | 0.0 | 1.6 | 0.00 | 0.25 | 0.25 | 91 | 1009.2 |
| 20260509165255 | 13 | 17 | 0.0 | 1.6 | 0.00 | 0.25 | 0.25 | 93 | 1009.0 |
| 20260509164752 | 13 | 7 | 1.6 | 1.6 | 0.00 | 0.25 | 0.25 | 94 | 1009.0 |
| 20260509164248 | 13 | 44 | 0.0 | 0.0 | 0.00 | 0.25 | 0.25 | 96 | 1008.9 |
| 20260509163745 | 13 | 44 | 0.0 | 1.6 | 0.00 | 0.25 | 0.25 | 97 | 1009.0 |
| 20260509163241 | 13 | 42 | 0.0 | 1.6 | 0.00 | 0.25 | 0.25 | 98 | 1008.7 |
| 20260509162739 | 12 | 41 | 1.6 | 1.6 | 0.00 | 0.25 | 0.25 | 98 | 1008.8 |
| 20260509162228 | 13 | 57 | 1.6 | 1.6 | 0.00 | 0.25 | 0.25 | 99 | 1008.8 |
| 20260509161724 | 13 | 19 | 0.0 | 1.6 | 0.00 | 0.25 | 0.25 | 99 | 1009.0 |
| 20260509161220 | 12 | 18 | 0.0 | 1.6 | 0.00 | 0.25 | 0.25 | 99 | 1008.8 |
| 20260509160715 | 12 | 3 | 3.2 | 3.2 | 0.00 | 0.25 | 0.25 | 99 | 1009.0 |
| 20260509160212 | 12 | 30 | 1.6 | 1.6 | 0.00 | 0.25 | 0.25 | 99 | 1008.9 |
| 20260509155707 | 12 | 51 | 1.6 | 1.6 | 0.00 | 0.25 | 0.25 | 99 | 1008.9 |
| 20260509155204 | 11 | 38 | 0.0 | 0.0 | 0.00 | 0.25 | 0.25 | 99 | 1008.8 |
| 20260509154700 | 11 | 66 | 1.6 | 1.6 | 0.00 | 0.25 | 0.25 | 99 | 1008.8 |
| 20260509154157 | 11 | 31 | 0.0 | 0.0 | 0.00 | 0.25 | 0.25 | 99 | 1008.8 |
| 20260509153654 | 11 | 57 | 1.6 | 1.6 | 0.00 | 0.25 | 0.25 | 99 | 1009.0 |
| 20260509153151 | 11 | 65 | 1.6 | 1.6 | 0.00 | 0.25 | 0.25 | 99 | 1008.7 |
| 20260509152646 | 11 | 51 | 1.6 | 1.6 | 0.00 | 0.25 | 0.25 | 99 | 1008.9 |
| 20260509152144 | 11 | 42 | 0.0 | 1.6 | 0.00 | 0.25 | 0.25 | 99 | 1008.8 |
| 20260509151640 | 11 | 50 | 0.0 | 0.0 | 0.00 | 0.25 | 0.25 | 99 | 1008.7 |
| 20260509151137 | 11 | 19 | 0.0 | 0.0 | 0.00 | 0.25 | 0.25 | 99 | 1008.8 |
| 20260509150636 | 11 | 65 | 1.6 | 1.6 | 0.18 | 0.25 | 0.25 | 99 | 1008.8 |
| 20260509150134 | 11 | 105 | 4.8 | 4.8 | 0.18 | 0.25 | 0.25 | 99 | 1008.8 |
| 20260509145630 | 10 | 138 | 3.2 | 3.2 | 0.30 | 0.25 | 0.25 | 99 | 1008.8 |
| 20260509145125 | 10 | 52 | 1.6 | 1.6 | 0.13 | 0.23 | 0.23 | 99 | 1009.0 |
| 20260509144621 | 10 | 44 | 0.0 | 0.0 | 0.00 | 0.20 | 0.20 | 99 | 1008.9 |
| 20260509144119 | 10 | 50 | 0.0 | 0.0 | 0.00 | 0.20 | 0.20 | 99 | 1008.9 |
| 20260509143616 | 10 | 48 | 0.0 | 1.6 | 0.18 | 0.20 | 0.20 | 99 | 1009.1 |
| 20260509143114 | 10 | 77 | 1.6 | 1.6 | 0.30 | 0.20 | 0.20 | 99 | 1009.0 |
| 20260509142608 | 10 | 33 | 0.0 | 1.6 | 0.13 | 0.18 | 0.18 | 99 | 1008.8 |
| 20260509142105 | 10 | 53 | 0.0 | 0.0 | 0.00 | 0.15 | 0.15 | 99 | 1009.2 |
| 20260509141601 | 10 | 58 | 1.6 | 1.6 | 0.00 | 0.15 | 0.15 | 99 | 1009.0 |
| 20260509141058 | 10 | 53 | 0.0 | 0.0 | 0.00 | 0.15 | 0.15 | 99 | 1009.1 |
| 20260509140555 | 10 | 48 | 0.0 | 1.6 | 0.00 | 0.15 | 0.15 | 99 | 1009.0 |
| 20260509140053 | 10 | 52 | 0.0 | 0.0 | 0.00 | 0.15 | 0.15 | 99 | 1009.2 |
| 20260509135550 | 10 | 51 | 0.0 | 0.0 | 0.00 | 0.15 | 0.15 | 99 | 1009.1 |
| 20260509135047 | 10 | 86 | 1.6 | 1.6 | 0.00 | 0.15 | 0.15 | 99 | 1008.9 |
| 20260509134544 | 10 | 45 | 0.0 | 0.0 | 0.00 | 0.15 | 0.15 | 99 | 1009.2 |
| 20260509134042 | 10 | 45 | 0.0 | 0.0 | 0.00 | 0.15 | 0.15 | 99 | 1009.2 |
| 20260509133538 | 10 | 54 | 0.0 | 0.0 | 0.00 | 0.15 | 0.15 | 99 | 1009.2 |
| 20260509133036 | 10 | 55 | 0.0 | 0.0 | 0.18 | 0.15 | 0.15 | 99 | 1009.2 |
| 20260509132534 | 10 | 61 | 1.6 | 1.6 | 0.18 | 0.15 | 0.15 | 99 | 1009.2 |
| 20260509132032 | 10 | 19 | 0.0 | 1.6 | 0.00 | 0.13 | 0.13 | 99 | 1009.1 |
| 20260509131528 | 10 | 34 | 0.0 | 0.0 | 0.00 | 0.13 | 0.13 | 99 | 1009.1 |
| 20260509131025 | 10 | 66 | 3.2 | 3.2 | 0.00 | 0.13 | 0.13 | 99 | 1009.1 |
| 20260509130520 | 10 | 75 | 1.6 | 1.6 | 0.00 | 0.13 | 0.13 | 99 | 1009.1 |
| 20260509130018 | 10 | 46 | 1.6 | 1.6 | 0.13 | 0.13 | 0.13 | 99 | 1009.4 |
| 20260509125514 | 10 | 87 | 1.6 | 3.2 | 0.13 | 0.13 | 0.13 | 99 | 1009.1 |
| 20260509125010 | 10 | 39 | 0.0 | 0.0 | 0.00 | 0.10 | 0.10 | 99 | 1009.2 |
| 20260509124507 | 10 | 46 | 0.0 | 0.0 | 0.18 | 0.10 | 0.10 | 99 | 1009.4 |
| 20260509124004 | 10 | 17 | 0.0 | 0.0 | 0.18 | 0.10 | 0.10 | 99 | 1009.4 |
| 20260509123502 | 10 | 44 | 0.0 | 0.0 | 0.13 | 0.08 | 0.08 | 99 | 1009.2 |
| 20260509122958 | 10 | 88 | 1.6 | 3.2 | 0.13 | 0.08 | 0.08 | 99 | 1009.3 |
| 20260509122455 | 10 | 44 | 0.0 | 0.0 | 0.00 | 0.05 | 0.05 | 99 | 1009.2 |
| 20260509121952 | 10 | 60 | 0.0 | 0.0 | 0.00 | 0.05 | 0.05 | 99 | 1009.4 |
| 20260509121448 | 10 | 62 | 1.6 | 1.6 | 0.00 | 0.05 | 0.05 | 99 | 1009.4 |
| 20260509120946 | 10 | 44 | 0.0 | 0.0 | 0.00 | 0.05 | 0.05 | 99 | 1009.4 |
| 20260509120444 | 10 | 54 | 0.0 | 1.6 | 0.00 | 0.05 | 0.05 | 99 | 1009.1 |
| 20260509115942 | 10 | 67 | 1.6 | 1.6 | 0.00 | 0.05 | 0.05 | 99 | 1009.2 |
| 20260509115439 | 10 | 51 | 0.0 | 0.0 | 0.00 | 0.05 | 0.05 | 99 | 1009.1 |
| 20260509114936 | 10 | 50 | 0.0 | 0.0 | 0.00 | 0.05 | 0.05 | 99 | 1009.3 |
| 20260509114435 | 9 | 57 | 1.6 | 1.6 | 0.00 | 0.05 | 0.05 | 99 | 1009.2 |
| 20260509113934 | 9 | 49 | 0.0 | 0.0 | 0.00 | 0.05 | 0.05 | 99 | 1009.3 |
| 20260509113431 | 9 | 53 | 0.0 | 0.0 | 0.00 | 0.05 | 0.05 | 99 | 1009.4 |
| 20260509112927 | 9 | 52 | 0.0 | 0.0 | 0.00 | 0.05 | 0.05 | 99 | 1009.4 |
| 20260509112425 | 9 | 56 | 0.0 | 0.0 | 0.00 | 0.05 | 0.05 | 99 | 1009.5 |
| 20260509111921 | 9 | 52 | 0.0 | 0.0 | 0.00 | 0.05 | 0.05 | 99 | 1009.2 |
| 20260509111419 | 9 | 50 | 0.0 | 0.0 | 0.00 | 0.05 | 0.05 | 99 | 1009.2 |
| 20260509110916 | 9 | 49 | 0.0 | 0.0 | 0.00 | 0.05 | 0.05 | 99 | 1008.9 |
| 20260509110412 | 9 | 48 | 0.0 | 0.0 | 0.00 | 0.05 | 0.05 | 99 | 1009.0 |
| 20260509105910 | 9 | 49 | 0.0 | 0.0 | 0.00 | 0.05 | 0.05 | 99 | 1009.1 |
| 20260509105409 | 9 | 50 | 0.0 | 0.0 | 0.00 | 0.05 | 0.05 | 99 | 1009.0 |
| 20260509104905 | 8 | 42 | 0.0 | 0.0 | 0.00 | 0.05 | 0.05 | 99 | 1009.1 |
| 20260509104402 | 8 | 42 | 0.0 | 0.0 | 0.00 | 0.05 | 0.05 | 99 | 1008.9 |
| 20260509103859 | 8 | 42 | 0.0 | 0.0 | 0.00 | 0.05 | 0.05 | 99 | 1009.0 |
| 20260509103356 | 8 | 42 | 0.0 | 0.0 | 0.00 | 0.05 | 0.05 | 99 | 1009.0 |
| 20260509102855 | 8 | 42 | 0.0 | 0.0 | 0.00 | 0.05 | 0.05 | 99 | 1009.0 |
| 20260509102352 | 8 | 42 | 0.0 | 0.0 | 0.00 | 0.05 | 0.05 | 99 | 1008.9 |
| 20260509101848 | 8 | 36 | 0.0 | 0.0 | 0.00 | 0.05 | 0.05 | 99 | 1009.0 |
| 20260509101344 | 8 | 37 | 0.0 | 0.0 | 0.00 | 0.05 | 0.05 | 99 | 1009.2 |
| 20260509100842 | 8 | 36 | 0.0 | 1.6 | 0.00 | 0.05 | 0.05 | 99 | 1009.0 |
| 20260509100339 | 8 | 36 | 0.0 | 0.0 | 0.00 | 0.05 | 0.05 | 99 | 1009.0 |
| 20260509095836 | 8 | 36 | 0.0 | 0.0 | 0.00 | 0.05 | 0.05 | 99 | 1009.1 |
| 20260509095333 | 8 | 36 | 0.0 | 0.0 | 0.00 | 0.05 | 0.05 | 99 | 1008.8 |
| 20260509094830 | 8 | 35 | 0.0 | 0.0 | 0.00 | 0.05 | 0.05 | 99 | 1009.1 |
| 20260509094326 | 8 | 35 | 0.0 | 1.6 | 0.00 | 0.05 | 0.05 | 99 | 1009.1 |
| 20260509093824 | 8 | 35 | 0.0 | 0.0 | 0.00 | 0.05 | 0.05 | 99 | 1009.2 |
| 20260509093321 | 8 | 34 | 0.0 | 0.0 | 0.00 | 0.05 | 0.05 | 99 | 1009.4 |
| 20260509092820 | 8 | 34 | 0.0 | 0.0 | 0.00 | 0.05 | 0.05 | 99 | 1009.4 |
| 20260509092317 | 8 | 35 | 0.0 | 0.0 | 0.00 | 0.05 | 0.05 | 99 | 1009.5 |
| 20260509091815 | 8 | 35 | 0.0 | 0.0 | 0.18 | 0.05 | 0.05 | 99 | 1009.5 |
| 20260509091312 | 8 | 35 | 0.0 | 0.0 | 0.18 | 0.05 | 0.05 | 99 | 1009.4 |
| 20260509090809 | 8 | 35 | 0.0 | 0.0 | 0.18 | 0.05 | 0.05 | 99 | 1009.4 |
| 20260509090306 | 8 | 35 | 0.0 | 0.0 | 0.00 | 0.03 | 0.03 | 99 | 1009.5 |
| 20260509085803 | 8 | 35 | 0.0 | 0.0 | 0.00 | 0.03 | 0.03 | 99 | 1009.5 |
| 20260509085301 | 8 | 34 | 0.0 | 0.0 | 0.00 | 0.03 | 0.03 | 99 | 1009.9 |
| 20260509084757 | 8 | 20 | 0.0 | 0.0 | 0.00 | 0.03 | 0.03 | 99 | 1009.7 |
| 20260509084254 | 8 | 40 | 0.0 | 0.0 | 0.00 | 0.03 | 0.03 | 99 | 1009.5 |
| 20260509083752 | 8 | 40 | 0.0 | 0.0 | 0.00 | 0.03 | 0.03 | 99 | 1009.9 |
| 20260509083248 | 8 | 40 | 0.0 | 0.0 | 0.00 | 0.03 | 0.03 | 99 | 1009.8 |
| 20260509082745 | 8 | 40 | 0.0 | 0.0 | 0.00 | 0.03 | 0.03 | 99 | 1009.9 |
| 20260509082241 | 8 | 40 | 0.0 | 0.0 | 0.00 | 0.03 | 0.03 | 99 | 1009.9 |
| 20260509081739 | 8 | 40 | 0.0 | 0.0 | 0.00 | 0.03 | 0.03 | 99 | 1009.8 |
| 20260509081236 | 8 | 40 | 0.0 | 0.0 | 0.00 | 0.03 | 0.03 | 99 | 1010.0 |
| 20260509080734 | 8 | 41 | 0.0 | 0.0 | 0.00 | 0.03 | 0.03 | 99 | 1009.7 |
| 20260509080231 | 8 | 41 | 0.0 | 0.0 | 0.00 | 0.03 | 0.03 | 99 | 1009.8 |
| 20260509075729 | 8 | 41 | 0.0 | 0.0 | 0.00 | 0.03 | 0.03 | 99 | 1009.9 |
| 20260509075227 | 8 | 41 | 0.0 | 0.0 | 0.00 | 0.03 | 0.03 | 99 | 1009.8 |
| 20260509074723 | 8 | 41 | 0.0 | 0.0 | 0.00 | 0.03 | 0.03 | 99 | 1009.9 |
| 20260509074221 | 8 | 40 | 0.0 | 0.0 | 0.00 | 0.03 | 0.03 | 99 | 1009.8 |
| 20260509073717 | 8 | 41 | 0.0 | 0.0 | 0.00 | 0.03 | 0.03 | 99 | 1009.7 |
| 20260509073214 | 8 | 41 | 0.0 | 0.0 | 0.00 | 0.03 | 0.03 | 99 | 1010.0 |
| 20260509072710 | 8 | 41 | 0.0 | 0.0 | 0.13 | 0.03 | 0.03 | 99 | 1009.8 |
| 20260509072207 | 8 | 20 | 0.0 | 0.0 | 0.13 | 0.03 | 0.03 | 99 | 1010.0 |
| 20260509071703 | 8 | 20 | 0.0 | 0.0 | 0.00 | 0.00 | 0.00 | 99 | 1010.0 |
| 20260509071201 | 8 | 19 | 0.0 | 0.0 | 0.00 | 0.00 | 0.00 | 99 | 1010.0 |
| 20260509070658 | 8 | 20 | 0.0 | 0.0 | 0.00 | 0.00 | 0.00 | 99 | 1009.9 |
| 20260509070154 | 8 | 20 | 0.0 | 0.0 | 0.00 | 0.00 | 0.00 | 99 | 1009.8 |
| 20260509065650 | 8 | 20 | 0.0 | 0.0 | 0.00 | 0.00 | 0.00 | 99 | 1009.8 |
| 20260509065147 | 8 | 20 | 0.0 | 0.0 | 0.00 | 0.00 | 0.00 | 99 | 1009.5 |
| 20260509064644 | 8 | 19 | 0.0 | 0.0 | 0.00 | 0.00 | 0.00 | 99 | 1009.7 |
| 20260509064141 | 8 | 19 | 0.0 | 0.0 | 0.00 | 0.00 | 0.00 | 99 | 1009.8 |
| 20260509063638 | 8 | 19 | 0.0 | 0.0 | 0.00 | 0.00 | 0.00 | 99 | 1009.9 |
| 20260509063135 | 8 | 19 | 0.0 | 0.0 | 0.00 | 0.00 | 0.00 | 99 | 1009.8 |
| 20260509062632 | 8 | 19 | 0.0 | 0.0 | 0.00 | 0.00 | 0.00 | 99 | 1010.0 |
| 20260509062129 | 8 | 19 | 0.0 | 0.0 | 0.00 | 0.00 | 0.00 | 99 | 1010.0 |
| 20260509061626 | 8 | 19 | 0.0 | 0.0 | 0.00 | 0.00 | 0.00 | 99 | 1010.1 |
| 20260509061123 | 8 | 19 | 0.0 | 0.0 | 0.00 | 0.00 | 0.00 | 99 | 1010.2 |
| 20260509060621 | 8 | 19 | 0.0 | 0.0 | 0.00 | 0.00 | 0.00 | 99 | 1010.1 |
| 20260509060116 | 8 | 19 | 0.0 | 1.6 | 0.00 | 0.00 | 0.00 | 99 | 1010.3 |
| 20260509055612 | 8 | 19 | 0.0 | 0.0 | 0.00 | 0.00 | 0.00 | 99 | 1010.5 |
| 20260509055108 | 8 | 19 | 0.0 | 0.0 | 0.00 | 0.00 | 0.00 | 99 | 1010.2 |
| 20260509054605 | 8 | 19 | 0.0 | 0.0 | 0.00 | 0.00 | 0.00 | 99 | 1010.3 |
| 20260509054103 | 8 | 19 | 0.0 | 0.0 | 0.00 | 0.00 | 0.00 | 99 | 1010.4 |
| 20260509053601 | 8 | 19 | 0.0 | 0.0 | 0.00 | 0.00 | 0.00 | 99 | 1010.5 |
| 20260509053058 | 8 | 19 | 0.0 | 0.0 | 0.00 | 0.00 | 0.00 | 99 | 1010.7 |
| 20260509052556 | 8 | 19 | 0.0 | 0.0 | 0.00 | 0.00 | 0.00 | 99 | 1010.8 |
| 20260509052053 | 8 | 19 | 0.0 | 0.0 | 0.00 | 0.00 | 0.00 | 99 | 1010.9 |
| 20260509051551 | 8 | 19 | 0.0 | 0.0 | 0.00 | 0.00 | 0.00 | 99 | 1010.9 |
| 20260509051048 | 8 | 19 | 0.0 | 0.0 | 0.00 | 0.00 | 0.00 | 99 | 1011.0 |
| 20260509050545 | 8 | 19 | 0.0 | 0.0 | 0.00 | 0.00 | 0.00 | 99 | 1011.2 |
| 20260509050041 | 8 | 19 | 0.0 | 0.0 | 0.00 | 0.20 | 0.20 | 99 | 1011.0 |
| 20260509045539 | 8 | 19 | 0.0 | 0.0 | 0.00 | 0.20 | 0.20 | 99 | 1011.1 |
| 20260509045035 | 8 | 19 | 0.0 | 0.0 | 0.00 | 0.20 | 0.20 | 99 | 1011.0 |
| 20260509044533 | 8 | 19 | 0.0 | 0.0 | 0.00 | 0.20 | 0.20 | 99 | 1010.9 |
| 20260509044030 | 8 | 19 | 0.0 | 0.0 | 0.00 | 0.20 | 0.20 | 99 | 1011.1 |
| 20260509043526 | 8 | 19 | 0.0 | 0.0 | 0.00 | 0.20 | 0.20 | 99 | 1011.2 |
| 20260509043022 | 8 | 19 | 0.0 | 0.0 | 0.00 | 0.20 | 0.20 | 99 | 1011.2 |
| 20260509042518 | 8 | 19 | 0.0 | 0.0 | 0.00 | 0.20 | 0.20 | 99 | 1011.4 |
| 20260509042009 | 8 | 19 | 0.0 | 0.0 | 0.00 | 0.20 | 0.20 | 99 | 1011.4 |
| 20260509041506 | 8 | 19 | 0.0 | 0.0 | 0.00 | 0.20 | 0.20 | 99 | 1011.4 |
| 20260509041004 | 8 | 19 | 0.0 | 0.0 | 0.00 | 0.20 | 0.20 | 99 | 1011.3 |
| 20260509040502 | 8 | 19 | 0.0 | 0.0 | 0.00 | 0.20 | 0.20 | 99 | 1011.5 |
| 20260509035957 | 8 | 19 | 0.0 | 0.0 | 0.00 | 0.20 | 0.20 | 99 | 1011.5 |
| 20260509035455 | 8 | 19 | 0.0 | 0.0 | 0.00 | 0.20 | 0.20 | 99 | 1011.8 |
| 20260509034951 | 8 | 19 | 0.0 | 0.0 | 0.00 | 0.20 | 0.20 | 99 | 1011.8 |
| 20260509034450 | 8 | 19 | 0.0 | 0.0 | 0.18 | 0.20 | 0.20 | 99 | 1012.0 |
| 20260509033946 | 8 | 19 | 0.0 | 0.0 | 0.18 | 0.20 | 0.20 | 99 | 1011.9 |
| 20260509033443 | 9 | 19 | 0.0 | 0.0 | 0.00 | 0.18 | 0.18 | 99 | 1012.0 |
| 20260509032940 | 9 | 19 | 0.0 | 0.0 | 0.00 | 0.18 | 0.18 | 99 | 1012.0 |
| 20260509032437 | 9 | 19 | 0.0 | 0.0 | 0.00 | 0.18 | 0.18 | 99 | 1012.1 |